Lapse_Rate
6.5 6.6 6.7 6.6 6.5 6.6 6.7 6.9 6.8 6.6 6.3 6.3 6.1 6.1 6.2 6.0 5.9 5.8 5.7 5.7 5.6 5.5 5.6 5.5 5.4 5.4 5.4 5.5 5.5 5.5 5.5 5.4 5.4
6.5 6.5 6.6 6.6 6.6 6.6 6.8 6.9 6.6 6.6 6.3 6.1 6.0 6.1 6.0 5.8 5.8 5.8 5.7 5.6 5.6 5.4 5.3 5.4 5.4 5.3 5.4 5.4 5.4 5.4 5.4 5.5 5.6
6.4 6.3 6.5 6.6 6.7 6.6 6.8 6.6 6.6 6.6 6.3 6.2 6.1 5.9 5.7 5.7 5.6 5.6 5.6 5.6 5.7 5.6 5.5 5.5 5.4 5.5 5.4 5.4 5.4 5.5 5.6 5.7 5.6
6.3 6.4 6.5 6.7 6.8 6.9 6.8 6.8 6.7 6.6 6.4 6.2 6.2 6.2 5.9 5.7 5.7 5.6 5.5 5.6 5.6 5.6 5.6 5.5 5.5 5.6 5.5 5.6 5.6 5.5 5.6 5.6 5.6
6.4 6.4 6.4 6.5 6.5 6.8 7.1 7.0 6.8 6.5 6.5 6.2 6.2 6.3 6.0 5.8 5.8 5.9 5.6 5.5 5.6 5.6 5.6 5.6 5.6 5.6 5.6 5.7 5.6 5.6 5.5 5.5 5.4
6.3 6.5 6.5 6.6 6.7 6.7 6.9 6.9 6.7 6.6 6.5 6.4 6.4 6.2 6.0 5.9 6.2 6.0 5.7 5.7 5.8 5.7 5.6 5.6 5.5 5.6 5.6 5.5 5.6 5.5 5.4 5.4 5.4
6.2 6.3 6.4 6.5 6.6 6.7 6.8 6.8 6.8 6.8 6.8 6.7 6.6 6.5 6.3 6.3 6.5 6.1 6.0 5.9 5.8 5.8 5.7 5.6 5.6 5.5 5.4 5.4 5.5 5.4 5.3 5.3 5.3
6.1 6.1 6.3 6.4 6.4 6.6 6.7 6.7 6.7 6.7 6.7 6.7 6.6 6.5 6.5 6.5 6.6 6.4 6.2 6.1 6.0 5.9 5.9 5.7 5.6 5.5 5.4 5.4 5.4 5.3 5.3 5.2 5.2
6.2 6.2 6.2 6.2 6.3 6.4 6.5 6.6 6.6 6.5 6.7 6.6 6.6 6.6 6.5 6.5 6.7 6.4 6.3 6.2 6.0 5.9 5.8 5.8 5.6 5.7 5.7 5.6 5.5 5.5 5.4 5.3 5.2
6.0 6.0 6.1 6.1 6.1 6.2 6.4 6.5 6.4 6.4 6.6 6.7 6.7 6.6 6.6 6.5 6.7 6.6 6.5 6.4 6.2 5.9 5.7 5.9 5.7 5.6 5.6 5.6 5.5 5.5 5.4 5.3 5.3
5.9 5.9 5.9 6.1 6.1 6.2 6.2 6.3 6.2 6.3 6.4 6.5 6.6 6.7 6.7 6.8 6.8 6.7 6.7 6.6 6.4 6.1 5.8 5.9 5.8 5.7 5.5 5.6 5.6 5.5 5.5 5.4 5.3
5.8 5.8 5.9 5.9 6.0 6.0 6.2 6.2 6.2 6.2 6.3 6.4 6.6 6.7 6.7 6.8 6.8 6.7 6.6 6.6 6.4 6.3 6.1 6.2 5.9 5.6 5.6 5.7 5.6 5.7 5.6 5.6 5.6
5.7 5.7 5.7 5.9 5.9 5.8 5.9 6.1 6.2 6.3 6.3 6.4 6.4 6.5 6.6 6.7 6.8 6.7 6.6 6.4 6.4 6.3 6.2 6.2 6.2 5.8 5.7 5.6 5.7 5.7 5.8 5.8 5.7
5.8 5.8 5.8 5.7 5.8 5.9 5.9 6.0 6.0 6.1 6.1 6.1 6.3 6.4 6.4 6.4 6.5 6.6 6.6 6.5 6.5 6.5 6.4 6.3 6.2 6.0 5.7 5.6 5.6 5.6 5.8 5.7 5.7
5.7 5.8 5.9 5.8 5.9 5.8 5.8 5.8 5.9 6.1 6.1 6.2 6.2 6.2 6.3 6.4 6.4 6.4 6.4 6.5 6.4 6.5 6.4 6.4 6.4 6.1 5.8 5.6 5.7 5.9 6.1 5.9 5.8
5.8 5.8 5.8 5.8 5.8 5.7 5.7 5.8 5.8 6.1 5.8 5.8 5.9 6.1 6.1 6.1 6.3 6.4 6.4 6.4 6.3 6.3 6.3 6.3 6.5 6.3 6.2 5.8 5.6 5.9 6.3 6.1 5.9
5.6 5.7 5.8 5.7 5.6 5.6 5.7 5.5 5.7 5.8 5.7 5.8 5.8 5.9 5.9 6.1 6.0 6.1 6.2 6.3 6.2 6.2 6.2 6.2 6.3 6.2 6.1 5.9 5.8 6.0 6.3 6.2 5.8
5.5 5.6 5.7 5.8 5.7 5.6 5.7 5.5 5.6 5.6 5.6 5.6 5.6 5.8 5.9 6.0 6.0 5.9 5.9 6.0 6.0 6.1 6.1 6.2 6.3 6.2 6.1 6.1 6.0 6.1 6.2 6.4 5.7
5.6 5.5 5.6 5.6 5.7 5.7 5.6 5.6 5.5 5.5 5.7 5.6 5.6 5.7 5.6 5.7 5.9 5.8 5.8 5.8 5.8 5.8 5.8 5.8 6.0 6.1 6.2 6.1 6.1 6.2 6.3 6.4 6.0
5.7 5.6 5.6 5.7 5.7 5.7 5.7 5.7 5.7 5.4 5.4 5.5 5.5 5.5 5.4 5.6 5.5 5.7 5.6 5.6 5.7 5.7 5.7 5.7 5.7 5.8 5.8 5.8 5.9 6.0 6.1 6.3 6.2
Wind_Speed
11 12 9 11 10 10 9 8 7 8 9 10 8 5 2 10 12 8 12 10 10 10 13 14 13 13 14 15 16 16 17 17 16
7 8 6 7 9 8 8 8 6 6 8 7 7 3 5 5 7 7 13 11 9 9 10 12 11 11 13 13 14 15 15 15 15
1 4 3 2 6 8 8 9 6 6 7 7 5 2 4 3 9 9 12 9 10 9 8 10 10 11 12 12 13 14 13 13 13
1 1 1 0 3 7 9 9 8 7 6 5 4 1 5 1 5 9 11 5 9 9 8 9 10 10 11 12 13 13 11 11 11
2 3 5 3 1 5 10 8 12 10 8 3 3 2 4 6 7 14 11 6 7 7 7 9 8 9 12 12 14 11 10 9 9
5 5 2 3 1 8 9 11 14 10 6 1 1 6 6 4 14 11 11 6 5 6 7 7 10 10 13 15 12 11 11 10 9
7 4 2 5 2 7 13 11 9 8 7 5 4 4 5 10 11 10 10 2 5 7 6 8 12 13 14 13 12 12 11 11 12
6 6 6 8 10 8 7 8 6 4 6 5 5 6 6 7 12 12 11 7 3 6 6 9 13 12 11 11 11 11 11 11 11
3 4 5 3 7 10 7 2 5 5 5 5 6 8 6 5 11 14 17 12 7 4 5 7 10 14 11 11 10 10 10 10 10
4 4 4 8 4 5 5 6 5 6 5 6 6 7 8 7 9 9 18 19 14 6 3 5 11 13 11 10 8 8 8 8 9
3 4 5 5 7 7 6 5 4 6 6 6 6 6 6 7 6 5 10 15 15 13 7 5 7 10 10 10 8 7 7 8 8
4 4 4 7 7 5 7 7 7 5 5 4 5 5 6 7 6 5 4 8 14 13 12 7 6 8 8 9 9 8 8 8 8
4 3 4 6 6 7 6 5 3 5 3 3 3 3 5 6 6 4 4 4 3 9 10 12 10 4 7 11 13 14 14 12 11
5 4 4 4 5 5 3 3 5 4 4 3 3 2 2 2 2 3 3 3 2 2 6 11 13 11 8 12 14 14 15 16 15
6 5 4 6 4 4 2 3 2 4 5 3 3 2 1 2 1 1 0 0 1 1 2 4 6 11 5 9 13 14 16 15 13
6 5 5 6 5 4 5 0 3 3 5 4 1 1 2 2 2 3 3 2 1 0 1 1 2 4 7 5 12 14 14 13 11
5 5 4 5 4 4 5 3 2 2 5 2 1 3 4 5 5 3 3 3 2 3 3 2 3 2 2 3 11 15 14 12 10
5 5 5 4 4 5 6 7 6 4 4 4 3 3 5 1 5 7 4 4 3 5 5 5 4 5 4 4 8 13 17 13 10
5 6 6 6 4 6 5 6 6 4 4 2 4 3 2 2 2 3 5 5 6 6 6 6 6 5 4 3 4 13 16 14 11
7 6 7 5 4 5 6 4 5 6 3 4 3 6 5 4 3 2 4 5 6 5 6 7 8 8 6 6 5 7 12 11 8
Wind_Direction
91 73 83 103 102 99 98 87 76 78 97 99 92 82 337 303 97 108 94 89 94 85 86 90 95 98 108 102 100 91 87 86 83
95 81 69 98 114 109 106 99 88 95 102 96 92 62 335 66 89 98 92 91 99 103 97 96 98 99 106 107 104 97 92 89 87
77 106 94 92 126 128 119 109 100 112 101 93 83 76 322 64 91 47 79 84 95 96 105 106 103 103 105 103 101 95 94 91 88
182 162 186 185 124 139 129 117 107 112 102 85 94 62 298 45 70 134 107 101 91 88 106 112 115 114 110 105 102 96 93 94 90
157 193 198 202 167 135 134 131 110 99 97 68 109 164 276 94 70 50 58 76 106 102 88 99 110 123 110 99 88 90 89 85 93
168 58 53 201 221 154 141 114 105 100 107 89 160 280 279 80 79 71 15 62 87 109 112 107 102 102 104 95 90 99 96 94 101
48 92 83 181 140 123 112 115 117 172 153 128 347 300 51 54 71 50 13 26 103 122 130 124 111 108 104 99 98 97 97 96 89
213 152 160 144 168 143 135 145 195 143 126 97 41 18 28 66 71 31 40 33 101 138 134 122 123 115 111 110 111 106 106 100 96
207 209 158 165 152 160 174 143 93 93 92 76 69 36 38 36 84 43 50 51 64 110 118 140 139 126 123 118 112 110 107 106 104
211 229 201 180 166 160 147 131 128 111 94 79 75 77 62 29 74 75 49 47 44 66 109 146 154 134 131 123 120 117 120 121 113
219 213 215 220 195 171 163 128 115 100 91 79 74 69 73 69 61 74 71 59 47 42 78 109 158 139 136 123 124 125 126 135 131
212 210 217 216 211 168 136 129 91 109 106 86 79 82 49 30 52 33 37 87 63 46 42 66 133 147 148 135 126 121 120 127 135
210 202 218 214 205 211 211 147 161 145 135 122 61 49 65 53 23 47 39 40 50 69 47 47 42 154 164 143 129 110 101 105 115
228 223 214 191 199 220 219 165 161 172 153 137 101 49 29 35 59 23 58 38 24 87 51 54 42 34 152 143 128 119 108 101 97
227 226 214 212 191 224 217 224 169 163 157 144 115 68 34 341 336 60 114 126 52 36 63 31 39 37 58 145 137 131 118 107 102
219 222 216 222 228 179 225 279 155 100 144 151 122 201 220 235 249 262 200 178 194 98 218 120 76 35 41 144 150 139 128 117 106
241 236 236 222 236 203 155 180 131 129 182 206 40 260 211 223 213 213 221 209 230 228 233 195 169 121 75 34 164 151 137 126 113
253 255 260 253 246 245 164 186 181 172 196 254 229 212 241 191 164 217 206 193 220 212 214 214 196 164 139 88 164 159 147 146 131
275 275 264 262 251 251 232 179 201 173 176 211 251 268 331 288 212 213 210 203 220 209 205 202 195 174 161 141 128 151 147 148 150
316 301 285 270 261 260 260 215 200 217 203 195 164 219 226 265 272 229 196 211 218 212 213 203 197 184 181 180 170 156 149 160 171